Theta_e
325 325 323 323 323 322 321 320 319 319 318 317 317 316 315 315 316 315 315 315 313 311 311 312 310 310 310 310 311 311 311 311 309 313 315 317 321 331 333 332 330 328 326
325 324 322 322 322 321 320 319 319 318 318 317 316 315 315 315 314 313 313 314 312 311 311 313 312 314 310 308 308 308 309 310 310 310 313 314 320 324 330 328 327 327 325
324 324 322 321 320 320 319 319 318 318 317 316 315 314 314 314 313 313 313 313 311 311 311 313 312 312 311 311 311 308 309 311 310 309 310 314 319 326 325 325 324 323 323
322 323 322 321 321 319 319 319 319 318 316 314 313 314 314 314 313 313 312 310 310 311 312 313 313 313 312 311 310 311 310 307 307 307 308 311 314 320 324 320 316 318 317
321 320 320 320 319 319 319 317 316 315 314 313 312 311 311 312 313 309 308 307 307 309 311 313 314 315 316 314 312 312 312 309 307 306 306 307 310 317 319 319 315 314 314
317 319 320 321 319 317 315 314 313 312 311 310 310 309 308 310 307 306 308 306 306 306 307 309 311 313 313 313 313 313 312 310 309 307 304 304 306 309 319 317 313 310 306
316 317 318 317 315 314 314 312 309 308 307 307 307 307 306 305 304 303 305 307 306 306 306 306 306 308 310 310 311 311 311 310 310 310 307 305 305 308 318 316 313 312 309
315 315 316 314 312 311 308 306 305 305 304 304 304 304 303 305 303 302 302 305 305 305 305 305 305 305 306 306 306 307 309 310 311 311 310 309 308 308 315 319 315 314 308
314 313 313 311 308 306 305 304 303 301 301 301 302 302 302 303 302 301 301 302 302 302 304 305 305 304 303 301 305 305 306 307 309 307 307 306 304 302 308 315 313 310 304
311 310 308 307 306 305 304 302 301 300 300 301 302 302 303 302 301 299 300 303 302 302 303 305 304 304 301 299 303 304 304 306 308 309 309 305 305 305 305 313 315 311 308
309 308 306 306 304 303 302 301 301 301 300 300 301 302 302 302 300 298 298 298 298 297 297 298 299 299 299 297 298 304 304 306 307 308 309 309 309 308 306 309 314 314 310
306 306 304 302 303 303 301 300 301 300 298 299 299 297 299 299 299 298 297 296 297 297 296 298 299 297 296 296 297 298 298 301 306 306 306 307 307 308 308 308 313 316 317
305 303 302 302 302 302 300 299 299 298 297 296 295 296 296 298 297 298 296 296 296 297 298 298 297 295 295 296 296 296 297 299 300 301 302 304 307 309 311 311 314 317 317
301 301 301 301 301 300 300 299 297 295 295 294 294 294 295 295 296 297 297 297 296 296 297 296 296 296 295 296 297 297 297 298 298 299 300 305 308 309 311 313 312 314 312
300 300 299 300 297 297 297 296 296 295 294 292 293 295 293 293 295 294 293 293 294 294 294 293 293 293 293 294 295 296 297 297 297 299 302 305 305 308 312 314 314 313 310
298 298 297 296 295 295 295 295 296 295 294 293 293 293 295 294 293 293 292 292 291 291 291 292 292 294 294 296 297 297 296 297 297 299 301 304 304 308 312 313 314 312 310
296 296 294 295 294 293 293 292 293 295 295 294 293 292 292 292 292 292 292 291 291 291 294 296 297 298 298 300 301 302 296 297 299 300 302 304 305 311 310 312 312 312 310
296 296 293 293 293 295 296 294 294 293 292 293 294 293 293 292 292 291 291 292 297 297 298 297 297 298 299 299 301 299 297 298 298 300 301 304 306 312 312 313 312 311 309
294 293 293 294 296 295 294 294 293 293 292 292 293 293 293 293 292 292 293 297 296 297 298 298 298 298 299 300 300 299 298 298 299 301 304 305 308 314 313 313 312 304 304
294 294 292 296 294 294 293 293 292 292 292 292 292 292 294 293 293 295 297 297 298 298 298 298 298 298 300 300 300 299 300 300 302 305 305 308 313 315 314 313 312 307 309
297 293 290 294 294 293 292 292 292 292 292 292 292 293 289 290 294 296 296 298 299 298 298 298 297 297 302 302 303 303 303 304 306 307 308 309 315 315 315 314 311 310 309
297 296 295 293 294 293 293 293 293 292 292 292 293 294 290 295 296 296 297 299 299 299 299 299 297 297 300 307 306 306 306 307 307 309 310 311 315 315 314 312 310 309 308
298 296 294 294 294 291 293 293 292 292 292 293 294 294 295 295 296 297 298 299 299 299 299 298 296 297 298 309 310 311 309 310 312 314 314 315 315 314 313 310 309 309 308
298 295 293 294 294 293 293 292 292 290 291 293 294 294 295 295 296 297 298 299 298 299 299 298 296 295 297 297 307 315 315 316 316 318 317 316 314 309 311 310 309 309 309
297 294 293 294 293 293 292 292 292 292 293 293 294 294 295 295 296 297 297 298 298 298 298 297 296 294 296 296 295 301 297 296 314 305 317 315 313 312 311 310 310 309 309
296 294 293 294 293 293 293 293 293 292 293 292 292 294 294 294 295 295 296 296 297 297 297 296 296 294 293 295 292 290 289 291 302 300 316 316 313 312 311 310 309 309 308
Wind_Speed
13 11 9 8 8 7 6 6 6 4 5 6 6 6 6 6 6 6 7 7 6 6 6 5 7 6 6 4 4 4 5 4 8 7 5 4 9 3 6 6 7 9 9
13 10 9 8 8 8 7 7 7 6 6 6 6 6 6 6 7 7 7 7 6 6 7 8 13 9 7 5 4 6 5 5 4 8 4 5 4 2 5 6 6 7 8
12 12 10 9 8 9 8 8 7 7 7 6 6 7 7 7 7 7 7 6 6 6 7 11 11 10 10 9 9 6 7 6 5 3 4 4 3 2 2 1 6 6 5
12 12 12 12 12 10 8 7 7 7 7 7 7 7 7 6 6 6 6 6 6 7 9 11 11 11 12 11 10 11 8 6 5 5 4 4 3 4 4 5 3 2 7
14 13 14 11 8 8 7 7 7 7 6 7 7 7 6 5 4 5 5 6 7 10 11 10 12 15 19 17 10 11 9 8 6 6 5 4 3 2 5 4 4 5 3
11 14 9 10 9 8 7 7 6 6 6 5 6 6 5 3 6 10 10 10 10 12 12 11 11 16 18 20 22 23 17 12 11 7 4 4 5 2 4 7 6 7 4
9 8 9 9 8 7 7 5 3 3 3 4 5 6 6 6 9 12 15 11 12 12 12 13 13 12 17 16 17 18 21 23 21 15 14 10 8 5 4 10 11 9 7
9 8 8 7 7 6 6 4 2 2 3 4 5 6 6 6 11 13 16 13 12 14 15 15 16 16 15 16 16 18 16 14 16 14 17 16 14 7 5 9 14 10 5
7 8 7 7 8 6 5 4 3 3 3 3 5 7 10 11 14 16 14 11 13 16 15 15 15 16 19 19 17 18 18 18 16 19 20 19 17 15 11 5 7 10 5
7 9 8 8 7 5 5 3 1 2 4 5 8 9 12 12 14 15 13 10 13 11 13 14 18 20 22 17 16 17 19 18 15 13 11 15 20 16 18 14 8 10 6
8 8 8 8 7 5 3 2 3 5 6 6 9 10 12 10 7 12 14 10 9 9 11 12 12 19 19 18 21 17 21 17 17 15 13 11 12 14 11 13 14 11 10
8 8 8 6 4 3 3 4 5 5 6 8 8 6 6 9 13 13 14 15 18 13 15 14 15 22 22 23 18 24 24 18 10 11 12 12 13 13 12 12 16 15 13
8 7 6 4 3 3 3 4 4 5 5 5 5 7 9 10 10 16 18 20 22 16 13 19 26 27 28 25 30 30 26 14 15 14 13 14 14 13 11 13 16 18 14
7 6 4 4 4 5 3 3 3 4 5 4 5 8 10 12 11 10 11 12 18 16 19 16 20 24 28 26 22 18 15 15 16 15 14 14 12 12 12 13 14 13 10
5 3 2 3 3 4 3 2 3 3 4 4 6 9 11 12 12 18 20 15 14 17 20 15 14 13 14 13 12 13 13 13 16 14 13 14 12 12 13 15 14 13 11
5 4 4 4 4 3 4 5 8 10 9 9 14 11 10 17 25 27 29 28 29 29 13 13 13 12 13 13 12 12 12 17 15 14 14 12 13 13 13 14 12 13 13
4 5 4 5 4 4 3 4 6 8 13 10 13 16 16 21 25 25 27 28 26 21 9 11 12 13 13 13 13 11 13 15 16 14 14 15 13 12 15 15 14 13 12
5 9 4 3 3 3 3 4 6 7 9 12 11 13 16 19 22 25 24 21 12 9 10 11 12 12 12 13 12 10 11 12 14 14 15 14 14 12 15 15 15 15 14
5 4 3 3 4 5 4 5 6 7 8 9 10 9 12 20 21 17 17 9 12 13 13 13 12 12 13 12 7 8 10 12 14 14 15 15 15 13 16 14 14 15 14
4 6 2 4 3 3 4 4 6 6 7 8 9 10 13 16 14 15 13 12 12 13 14 14 13 12 13 2 5 7 8 11 13 13 13 14 10 15 14 16 14 15 14
4 4 7 4 2 2 2 4 5 6 7 8 8 9 14 10 11 12 13 13 13 14 15 15 13 12 8 4 4 8 9 10 10 12 13 11 10 13 12 13 13 14 14
5 6 4 4 2 1 3 3 5 6 7 8 9 10 13 9 10 12 13 13 14 14 13 13 12 11 9 7 6 8 10 10 11 11 12 11 10 11 12 12 13 13 13
7 6 4 2 2 3 3 3 4 5 7 8 9 9 11 11 11 12 13 14 14 15 15 14 13 13 11 2 7 7 10 8 12 9 13 11 10 11 11 12 13 13 13
7 5 5 4 3 3 3 4 5 6 6 7 8 9 10 11 12 14 13 14 15 15 15 15 15 19 15 10 3 8 7 7 6 10 14 12 10 11 11 12 13 15 13
7 6 4 4 3 1 4 4 5 5 5 5 7 8 10 11 12 13 14 14 14 15 17 16 15 19 20 20 15 10 7 11 10 10 10 11 13 16 12 12 13 12 14
8 6 4 3 1 2 3 4 4 5 6 5 7 8 10 11 11 12 13 15 15 15 19 15 19 25 24 19 19 16 12 8 10 12 10 12 13 12 12 13 16 12 14
Wind_Direction
163 171 165 165 170 175 182 196 199 204 218 234 242 254 258 259 254 249 247 244 235 235 245 247 264 270 274 268 284 282 277 276 284 295 293 296 322 163 177 175 172 179 183
173 168 167 166 169 175 185 192 196 208 225 231 241 256 260 258 256 253 255 252 236 241 265 270 277 277 276 254 246 265 263 285 282 288 293 302 280 197 189 177 171 177 174
168 168 168 172 171 180 185 190 198 212 228 241 243 249 254 253 254 253 250 239 239 244 257 272 267 255 256 263 267 251 262 266 264 275 285 290 268 246 115 130 168 155 157
169 171 175 183 188 186 181 189 203 210 222 236 240 245 247 252 256 258 253 253 251 254 259 261 254 251 250 258 260 255 246 247 247 252 263 264 257 260 168 144 139 142 138
177 173 186 184 168 162 176 186 200 217 228 231 240 252 256 259 264 289 289 284 278 275 268 262 250 251 253 249 250 248 250 241 248 255 254 245 257 224 188 154 165 139 119
170 183 167 163 156 165 175 194 208 232 245 250 255 259 268 262 287 287 284 283 276 275 276 275 270 269 262 255 250 241 242 248 251 246 238 237 247 257 205 173 155 146 164
162 153 147 146 150 165 174 184 221 255 270 287 290 287 280 270 261 263 263 276 277 276 269 264 263 263 265 263 257 240 238 237 237 250 252 237 249 210 225 182 177 188 175
135 128 125 131 137 131 110 94 45 47 360 321 305 297 288 280 270 269 275 274 270 268 263 261 262 264 256 258 261 260 245 238 234 235 239 246 244 222 231 223 189 166 91
102 107 107 95 85 75 63 53 49 15 340 306 287 285 279 278 268 265 270 278 274 270 266 259 256 254 249 239 244 248 253 251 238 220 221 231 233 211 207 226 200 178 136
92 89 90 85 82 70 71 37 354 308 276 277 278 269 268 275 267 276 282 283 281 277 271 265 250 244 251 234 235 242 248 245 233 235 227 225 225 227 205 212 211 190 156
94 87 79 74 81 67 41 5 322 295 280 274 276 279 280 283 301 295 283 291 281 285 281 279 269 265 258 247 233 239 243 248 241 228 222 219 218 218 212 212 208 204 181
89 80 76 67 50 31 345 306 294 285 278 282 285 294 297 290 283 288 292 285 289 284 277 271 267 265 263 259 251 246 244 241 236 216 213 214 219 212 204 199 203 204 203
84 86 76 53 358 340 323 310 302 289 289 294 299 300 299 295 295 292 283 280 276 271 265 268 271 268 263 260 253 249 241 227 230 230 226 227 214 213 195 191 197 198 199
78 68 53 40 339 328 321 302 305 316 317 305 297 300 303 301 300 299 293 294 288 284 280 274 268 264 259 257 258 245 230 222 218 220 217 214 199 201 204 184 191 182 174
80 69 39 25 15 334 332 302 314 286 245 278 302 310 304 300 299 295 291 292 290 283 284 279 273 265 263 257 247 238 222 210 210 210 210 197 190 199 205 181 178 173 171
41 33 41 28 359 14 348 339 323 302 312 307 304 293 297 286 291 292 294 294 291 286 282 274 269 263 256 255 247 233 210 205 202 199 197 196 187 206 190 173 171 170 166
72 50 29 24 27 358 2 332 325 317 301 289 293 292 284 282 292 297 298 293 289 284 265 274 276 276 273 266 259 240 203 198 190 191 189 186 185 202 174 167 169 164 164
69 69 43 32 23 23 9 354 325 314 322 324 313 300 299 299 306 304 299 305 313 309 292 290 288 284 277 270 263 206 191 184 184 185 185 184 185 196 167 168 167 164 162
90 74 72 52 46 39 5 338 311 322 320 307 312 315 314 321 315 305 309 318 312 310 310 306 302 296 287 271 212 188 181 178 179 177 177 178 183 183 168 165 163 159 156
141 139 99 93 56 22 360 321 330 327 316 320 325 325 330 334 338 335 329 323 317 316 319 317 316 308 304 150 151 166 173 167 174 169 169 169 192 159 163 164 160 155 160
159 126 116 97 87 40 301 332 326 323 325 328 320 318 316 320 321 323 323 324 326 326 324 325 325 321 318 162 191 152 160 155 157 161 163 168 173 147 153 151 147 155 156
116 120 124 125 132 327 337 327 334 328 332 328 329 333 326 336 333 331 330 333 334 332 330 330 333 327 323 169 153 139 144 148 156 165 165 166 151 144 149 146 153 155 153
127 130 133 134 107 45 21 337 314 326 327 333 340 341 344 341 339 337 337 341 339 339 339 344 343 353 356 347 161 151 153 161 166 175 159 164 151 145 144 146 153 156 161
111 115 122 95 72 56 360 307 307 306 307 340 342 342 342 341 342 342 344 345 345 345 347 351 357 357 1 6 355 161 162 153 131 142 137 145 137 140 147 150 158 164 163
104 106 100 89 72 33 303 308 303 307 326 346 348 350 352 354 351 353 351 351 350 352 354 358 3 1 9 15 18 31 108 122 130 133 140 141 142 145 151 157 162 164 165
110 102 102 111 182 273 299 302 318 356 359 354 354 355 360 1 359 358 355 356 357 358 2 3 3 8 10 17 18 29 39 70 118 122 132 141 147 150 153 160 164 166 166